Preston, MN

1:54 PM CDT on May 20, 2018 (GMT -0500)
Preston

Weather History for KFKA - August, 2013

Change the Weather History Date:

Tuesday, August 27, 2013

  Actual Average (WUND) Record (WUND)
Temperature  
Mean Temperature 82 °F -  
Max Temperature 90 °F - - (-1)
Min Temperature 74 °F - - (-1)
Cooling Degree Days 17    
Growing Degree Days 32 (Base 50)    
Moisture  
Dew Point 71 °F    
Average Humidity 71    
Maximum Humidity 89    
Minimum Humidity 55    
Precipitation  
Precipitation 0.00 in - - ()
Sea Level Pressure  
Sea Level Pressure 29.90 in    
Wind  
Wind Speed 10 mph (WSW)    
Max Wind Speed 15 mph    
Max Gust Speed 22 mph    
Visibility 10 miles    
Events      
Averages and records for this station are not official NWS values.
T = Trace of Precipitation, MM = Missing Value Source: NWS Daily Summary

Daily Weather History Graph

Daily Weather History Graph

Search for Another Location

Airport or City:

Astronomy

Aug. 27, 2013 Rise Set
Actual Time 6:27 AM CDT 7:52 PM CDT
Civil Twilight 5:57 AM CDT 8:22 PM CDT
Nautical Twilight 5:20 AM CDT 8:58 PM CDT
Astronomical Twilight 4:42 AM CDT 9:36 PM CDT
Moon 11:31 PM CDT (8/27) 1:39 PM CDT (8/27)
Length of Visible Light 14h 25m
Length of Day
13h 25m
Waning Gibbous, 57% of the Moon is Illuminated
Aug 27
Waning Gibbous
Aug 28
Last Quarter
Sep 5
New
Sep 12
First Quarter
Sep 19
Full

Hourly Weather History & Observations

Time (CDT) Temp. Heat Index Dew Point Humidity Pressure Visibility Wind Dir Wind Speed Gust Speed Precip Events Conditions
12:14 AM 78.4 °F - 71.6 °F 79% 29.95 in 10.0 mi SW 10.4 mph - N/A   Clear
12:34 AM 78.4 °F - 71.1 °F 78% 29.95 in 10.0 mi SW 10.4 mph - N/A   Clear
12:54 AM 78.6 °F - 70.7 °F 77% 29.95 in 10.0 mi SW 11.5 mph - N/A   Clear
1:14 AM 78.1 °F - 70.3 °F 77% 29.94 in 10.0 mi SW 10.4 mph - N/A   Clear
1:34 AM 78.1 °F - 70.2 °F 77% 29.94 in 10.0 mi SW 10.4 mph 16.1 mph N/A   Clear
1:54 AM 78.3 °F - 70.2 °F 76% 29.93 in 10.0 mi SW 11.5 mph 16.1 mph N/A   Clear
2:14 AM 78.4 °F - 70.0 °F 75% 29.93 in 10.0 mi SW 10.4 mph 17.3 mph N/A   Clear
2:34 AM 77.9 °F - 70.0 °F 76% 29.92 in 10.0 mi SW 10.4 mph 17.3 mph N/A   Clear
2:54 AM 77.9 °F - 69.8 °F 76% 29.92 in 10.0 mi SW 11.5 mph 16.1 mph N/A   Clear
3:14 AM 77.9 °F - 69.8 °F 76% 29.92 in 10.0 mi SW 10.4 mph 16.1 mph N/A   Clear
3:35 AM 77.2 °F - 69.8 °F 78% 29.91 in 10.0 mi SW 11.5 mph - N/A   Clear
3:54 AM 77.0 °F - 69.4 °F 77% 29.91 in 10.0 mi SW 13.8 mph 19.6 mph N/A   Clear
4:15 AM 76.8 °F - 69.4 °F 78% 29.91 in 10.0 mi SW 10.4 mph - N/A   Clear
4:34 AM 76.8 °F - 69.3 °F 77% 29.90 in 10.0 mi SW 11.5 mph - N/A   Clear
4:55 AM 76.5 °F - 69.3 °F 78% 29.90 in 10.0 mi SW 11.5 mph - N/A   Clear
5:14 AM 76.1 °F - 69.1 °F 79% 29.90 in 10.0 mi SW 10.4 mph - N/A   Clear
5:34 AM 75.7 °F - 68.9 °F 79% 29.90 in 10.0 mi SSW 11.5 mph - N/A   Clear
5:54 AM 75.4 °F - 68.9 °F 80% 29.90 in 10.0 mi SSW 11.5 mph - N/A   Clear
6:14 AM 74.8 °F - 68.7 °F 81% 29.90 in 10.0 mi SSW 12.7 mph 16.1 mph N/A   Clear
6:34 AM 75.0 °F - 68.7 °F 81% 29.90 in 10.0 mi SSW 13.8 mph - N/A   Clear
6:55 AM 74.5 °F - 68.5 °F 82% 29.90 in 10.0 mi SSW 11.5 mph 17.3 mph N/A   Clear
7:15 AM 74.3 °F - 68.5 °F 82% 29.91 in 10.0 mi SW 10.4 mph 16.1 mph N/A   Clear
7:35 AM 74.7 °F - 68.5 °F 81% 29.90 in 10.0 mi SW 10.4 mph 16.1 mph N/A   Clear
7:54 AM 75.6 °F - 68.9 °F 80% 29.90 in 10.0 mi SW 11.5 mph 16.1 mph N/A   Clear
8:15 AM 77.0 °F - 69.1 °F 76% 29.90 in 10.0 mi SW 10.4 mph 17.3 mph N/A   Clear
8:34 AM 77.9 °F - 69.3 °F 75% 29.89 in 10.0 mi SW 11.5 mph 18.4 mph N/A   Clear
8:55 AM 79.2 °F - 69.6 °F 72% 29.89 in 10.0 mi SW 12.7 mph 18.4 mph N/A   Clear
9:14 AM 79.9 °F - 69.4 °F 70% 29.89 in 10.0 mi SW 12.7 mph 19.6 mph N/A   Clear
9:34 AM 81.0 °F 84.2 °F 69.6 °F 68% 29.89 in 10.0 mi WSW 13.8 mph - N/A   Clear
9:55 AM 81.7 °F 85.2 °F 69.6 °F 67% 29.90 in 10.0 mi WSW 15.0 mph 21.9 mph N/A   Clear
10:15 AM 82.4 °F 86.3 °F 69.8 °F 66% 29.90 in 10.0 mi WSW 10.4 mph 19.6 mph N/A   Clear
10:34 AM 83.3 °F 87.6 °F 70.3 °F 65% 29.90 in 10.0 mi WSW 10.4 mph 18.4 mph N/A   Clear
10:55 AM 83.7 °F 88.0 °F 70.2 °F 64% 29.90 in 10.0 mi WSW 12.7 mph - N/A   Clear
11:15 AM 84.4 °F 88.7 °F 70.0 °F 62% 29.89 in 10.0 mi West 12.7 mph 17.3 mph N/A   Clear
11:34 AM 85.1 °F 89.4 °F 70.0 °F 60% 29.89 in 10.0 mi WSW 12.7 mph - N/A   Clear
11:55 AM 86.0 °F 91.1 °F 70.5 °F 60% 29.89 in 10.0 mi WSW 11.5 mph - N/A   Clear
12:14 PM 86.7 °F 92.1 °F 70.7 °F 59% 29.89 in 10.0 mi WSW 11.5 mph - N/A   Clear
12:35 PM 86.5 °F 91.8 °F 70.9 °F 59% 29.89 in 10.0 mi SW 8.1 mph - N/A   Clear
12:54 PM 87.6 °F 93.9 °F 71.6 °F 59% 29.88 in 10.0 mi SSW 8.1 mph - N/A   Clear
1:15 PM 87.8 °F 94.3 °F 71.8 °F 59% 29.87 in 10.0 mi SSW 11.5 mph - N/A   Clear
1:34 PM 88.0 °F 94.2 °F 71.4 °F 58% 29.87 in 10.0 mi SW 10.4 mph - N/A   Clear
1:55 PM 88.3 °F 94.5 °F 71.4 °F 57% 29.87 in 10.0 mi WSW 9.2 mph - N/A   Clear
2:15 PM 88.9 °F 95.1 °F 71.6 °F 56% 29.87 in 10.0 mi WSW 10.4 mph - N/A   Clear
2:34 PM 88.9 °F 95.1 °F 71.2 °F 56% 29.87 in 10.0 mi WSW 11.5 mph - N/A   Clear
2:55 PM 89.8 °F 97.0 °F 72.0 °F 56% 29.87 in 10.0 mi SW 10.4 mph - N/A   Clear
3:15 PM 90.0 °F 96.9 °F 71.6 °F 55% 29.87 in 10.0 mi WSW 10.4 mph - N/A   Clear
3:34 PM 90.0 °F 97.4 °F 72.3 °F 56% 29.87 in 10.0 mi WSW 6.9 mph - N/A   Clear
3:55 PM 90.0 °F 97.4 °F 72.1 °F 56% 29.86 in 10.0 mi West 11.5 mph 16.1 mph N/A   Clear
4:14 PM 89.8 °F 97.0 °F 72.1 °F 56% 29.87 in 10.0 mi WSW 15.0 mph - N/A   Clear
4:35 PM 90.0 °F 97.9 °F 72.9 °F 57% 29.87 in 10.0 mi West 12.7 mph 17.3 mph N/A   Clear
4:55 PM 90.0 °F 97.4 °F 72.5 °F 56% 29.87 in 10.0 mi West 9.2 mph 17.3 mph N/A   Clear
5:14 PM 89.6 °F 97.7 °F 73.0 °F 58% 29.87 in 10.0 mi West 12.7 mph - N/A   Clear
5:35 PM 89.2 °F 97.4 °F 73.0 °F 59% 29.87 in 10.0 mi West 9.2 mph - N/A   Clear
5:55 PM 89.1 °F 97.5 °F 73.6 °F 60% 29.87 in 10.0 mi West 8.1 mph - N/A   Clear
6:14 PM 88.3 °F 96.4 °F 73.6 °F 61% 29.88 in 10.0 mi West 10.4 mph - N/A   Clear
6:35 PM 87.4 °F 95.3 °F 73.6 °F 63% 29.87 in 10.0 mi West 9.2 mph - N/A   Clear
6:54 PM 86.5 °F 94.2 °F 73.6 °F 65% 29.87 in 10.0 mi West 5.8 mph - N/A   Clear
7:15 PM 85.1 °F 92.9 °F 74.5 °F 70% 29.88 in 10.0 mi West 4.6 mph - N/A   Clear
7:35 PM 83.7 °F 90.7 °F 74.3 °F 73% 29.88 in 10.0 mi West 4.6 mph - N/A   Clear
7:54 PM 82.4 °F 88.7 °F 74.3 °F 76% 29.88 in 10.0 mi West 4.6 mph - N/A   Clear
8:14 PM 82.0 °F 87.9 °F 73.8 °F 76% 29.89 in 10.0 mi WNW 4.6 mph - N/A   Clear
8:34 PM 81.0 °F 86.2 °F 73.8 °F 79% 29.89 in 10.0 mi WNW 4.6 mph - N/A   Clear
8:54 PM 80.6 °F 85.4 °F 73.6 °F 79% 29.90 in 10.0 mi WNW 3.5 mph - N/A   Clear
9:14 PM 80.1 °F 84.4 °F 73.4 °F 80% 29.90 in 10.0 mi West 3.5 mph - N/A   Clear
9:35 PM 79.7 °F - 73.6 °F 81% 29.90 in 10.0 mi West 4.6 mph - N/A   Clear
9:54 PM 79.0 °F - 73.6 °F 83% 29.91 in 10.0 mi West 5.8 mph - N/A   Clear
10:14 PM 79.0 °F - 73.4 °F 83% 29.91 in 10.0 mi WNW 4.6 mph - N/A   Clear
10:35 PM 78.1 °F - 73.4 °F 85% 29.92 in 10.0 mi West 4.6 mph - N/A   Clear
10:54 PM 78.4 °F - 73.8 °F 85% 29.92 in 10.0 mi West 4.6 mph - N/A   Clear
11:14 PM 77.7 °F - 73.8 °F 88% 29.93 in 10.0 mi West 3.5 mph - N/A   Clear
11:34 PM 77.4 °F - 73.8 °F 89% 29.93 in 10.0 mi Calm Calm - N/A   Scattered Clouds